Date String (YYYY-MM-DD hh:mm:ss) UTC,Instrument flags,Ambient pressure (hPa),Sample flow (lpm),Bypass flow (lpm),Sample temperature (°C),Ambient temperature (°C),ASC tube jacket temperature (°C),LED temperature (°C),Box temperature (°C),Sample RH (%),Span deviation,Mass concentration (μg/m³),Mass concentration (μg/m³),Mass concentration (μg/m³)
DateTimeUTC,F1_M11,P_M11,Q1_M11,Q2_M11,T1_M11,T2_M11,T3_M11,T4_M11,T5_M11,U1_M11,ZSPAN_M11,X0_M11,X2_M11,X1_M11
2022-04-05 10:00:00,,0807.4,5.01,0.00,25.7,24.5,00.0,34.7,27.4,11.6,0000.0,0009.54,0003.12,0001.24
2022-04-05 10:01:00,,0807.4,4.98,0.00,25.7,24.6,00.0,34.7,27.4,11.5,0000.0,0009.73,0003.16,0001.24
2022-04-05 10:02:00,,0807.4,5.00,0.00,25.6,24.6,00.0,34.7,27.3,11.5,0000.0,0009.79,0003.15,0001.24
2022-04-05 10:03:00,,0807.4,5.00,0.00,25.6,24.5,00.0,34.7,27.3,11.6,0000.0,0010.17,0003.18,0001.22
2022-04-05 10:04:00,,0807.4,5.00,0.00,25.6,24.6,00.0,34.7,27.3,11.6,0000.0,0010.28,0003.23,0001.23
2022-04-05 10:05:00,,0807.4,5.00,0.00,25.6,24.6,00.0,34.6,27.4,11.5,0000.0,0010.45,0003.25,0001.22
2022-04-05 10:06:00,,0807.1,5.01,0.00,25.6,24.6,00.0,34.6,27.3,11.5,0000.0,0010.35,0003.25,0001.20
2022-04-05 10:07:00,,0807.3,5.00,0.00,25.5,24.5,00.0,34.6,27.3,11.4,0000.0,0010.36,0003.27,0001.19
2022-04-05 10:08:00,,0807.1,5.00,0.00,25.5,24.6,00.0,34.6,27.3,11.4,0000.0,0010.63,0003.24,0001.17
2022-04-05 10:09:00,,0807.2,4.99,0.00,25.5,24.6,00.0,34.6,27.3,11.3,0000.0,0011.05,0003.26,0001.15
2022-04-05 10:10:00,,0807.4,5.01,0.00,25.5,24.5,00.0,34.6,27.3,11.4,0000.0,0010.97,0003.22,0001.14
2022-04-05 10:11:00,,0807.3,4.99,0.00,25.5,24.5,00.0,34.6,27.3,11.4,0000.0,0010.77,0003.15,0001.12
2022-04-05 10:12:00,,0807.4,5.02,0.00,25.5,24.5,00.0,34.6,27.3,11.4,0000.0,0010.11,0003.09,0001.10
2022-04-05 10:13:00,,0807.4,4.99,0.00,25.5,24.5,00.0,34.6,27.3,11.4,0000.0,0009.71,0003.03,0001.08
2022-04-05 10:14:00,,0807.4,5.01,0.00,25.5,24.5,00.0,34.6,27.2,11.4,0000.0,0009.52,0002.94,0001.07
2022-04-05 10:15:00,,0807.5,5.00,0.00,25.5,24.5,00.0,34.6,27.2,11.4,0000.0,0009.27,0002.87,0001.06
2022-04-05 10:16:00,,0807.2,5.00,0.00,25.5,24.5,00.0,34.5,27.2,11.5,0000.0,0008.96,0002.80,0001.06
2022-04-05 10:17:00,,0807.4,5.02,0.00,25.5,24.5,00.0,34.5,27.3,11.6,0000.0,0008.88,0002.77,0001.06
2022-04-05 10:18:00,,0807.3,4.99,0.00,25.5,24.5,00.0,34.5,27.3,11.7,0000.0,0008.74,0002.68,0001.05
2022-04-05 10:19:00,,0807.4,4.99,0.00,25.5,24.5,00.0,34.5,27.3,11.7,0000.0,0009.01,0002.72,0001.05
2022-04-05 10:20:00,,0807.5,5.01,0.00,25.5,24.5,00.0,34.5,27.3,11.7,0000.0,0009.54,0002.76,0001.06
2022-04-05 10:21:00,,0807.7,5.00,0.00,25.5,24.5,00.0,34.5,27.3,11.7,0000.0,0009.25,0002.82,0001.07
2022-04-05 10:22:00,,0807.5,4.99,0.00,25.5,24.5,00.0,34.5,27.2,11.7,0000.0,0009.32,0002.99,0001.09
2022-04-05 10:23:00,,0807.6,5.01,0.00,25.5,24.5,00.0,34.5,27.2,11.7,0000.0,0009.26,0002.96,0001.10
2022-04-05 10:24:00,,0807.7,4.98,0.00,25.5,24.5,00.0,34.5,27.2,11.9,0000.0,0009.35,0003.00,0001.11
2022-04-05 10:25:00,,0807.6,5.00,0.00,25.5,24.5,00.0,34.5,27.2,11.9,0000.0,0009.20,0003.08,0001.12
2022-04-05 10:26:00,,0807.5,5.00,0.00,25.5,24.5,00.0,34.5,27.2,12.0,0000.0,0009.38,0003.11,0001.12
2022-04-05 10:27:00,,0807.6,5.00,0.00,25.5,24.5,00.0,34.5,27.2,11.7,0000.0,0010.60,0003.16,0001.12
2022-04-05 10:28:00,,0807.5,4.98,0.00,25.5,24.5,00.0,34.5,27.2,11.8,0000.0,0010.62,0003.17,0001.11
2022-04-05 10:29:00,,0807.4,5.02,0.00,25.5,24.5,00.0,34.5,27.3,11.9,0000.0,0010.77,0003.21,0001.11
2022-04-05 10:30:00,,0807.5,4.99,0.00,25.5,24.4,00.0,34.5,27.3,11.8,0000.0,0010.76,0003.22,0001.11
2022-04-05 10:31:00,,0807.7,4.99,0.00,25.5,24.4,00.0,34.5,27.3,11.6,0000.0,0010.70,0003.23,0001.11
2022-04-05 10:32:00,,0807.4,5.02,0.00,25.5,24.4,00.0,34.5,27.2,11.6,0000.0,0011.56,0003.25,0001.08
2022-04-05 10:33:00,,0807.5,5.01,0.00,25.5,24.4,00.0,34.5,27.3,11.8,0000.0,0011.67,0003.19,0001.06
2022-04-05 10:34:00,,0807.3,4.99,0.00,25.5,24.4,00.0,34.5,27.2,11.9,0000.0,0011.72,0003.17,0001.05
2022-04-05 10:35:00,,0807.3,4.99,0.00,25.5,24.3,00.0,34.4,27.2,11.9,0000.0,0011.82,0003.17,0001.05
2022-04-05 10:36:00,,0807.5,5.00,0.00,25.4,24.3,00.0,34.4,27.2,11.9,0000.0,0012.13,0003.18,0001.04
2022-04-05 10:37:00,,0807.6,4.99,0.00,25.4,24.3,00.0,34.4,27.2,12.0,0000.0,0012.48,0003.22,0001.05
2022-04-05 10:38:00,,0807.6,5.02,0.00,25.4,24.4,00.0,34.4,27.2,12.1,0000.0,0011.21,0003.18,0001.04
2022-04-05 10:39:00,,0807.5,4.99,0.00,25.4,24.4,00.0,34.4,27.2,12.2,0000.0,0011.08,0003.17,0001.03
2022-04-05 10:40:00,,0807.6,5.01,0.00,25.4,24.3,00.0,34.4,27.2,12.0,0000.0,0011.07,0003.17,0001.02
2022-04-05 10:41:00,,0807.6,4.99,0.00,25.4,24.4,00.0,34.4,27.1,12.0,0000.0,0011.42,0003.12,0001.02
2022-04-05 10:42:00,,0807.6,5.01,0.00,25.4,24.4,00.0,34.4,27.1,12.2,0000.0,0010.70,0003.11,0001.00
2022-04-05 10:43:00,,0807.6,5.00,0.00,25.4,24.3,00.0,34.4,27.1,12.3,0000.0,0009.96,0003.11,0001.01
2022-04-05 10:44:00,,0807.5,5.00,0.00,25.4,24.4,00.0,34.4,27.2,12.4,0000.0,0009.49,0003.10,0001.01
2022-04-05 10:45:00,,0807.6,4.98,0.00,25.4,24.3,00.0,34.4,27.2,12.2,0000.0,0009.63,0003.11,0001.01
2022-04-05 10:46:00,,0807.7,5.01,0.00,25.4,24.3,00.0,34.4,27.1,12.2,0000.0,0009.79,0003.10,0001.00
2022-04-05 10:47:00,,0807.3,4.98,0.00,25.4,24.3,00.0,34.4,27.1,12.2,0000.0,0009.92,0003.08,0000.99
2022-04-05 10:48:00,,0807.1,5.00,0.00,25.4,24.3,00.0,34.4,27.2,12.3,0000.0,0009.50,0003.02,0001.00
2022-04-05 10:49:00,,0807.3,5.00,0.00,25.4,24.3,00.0,34.4,27.2,12.3,0000.0,0009.50,0003.06,0001.01
2022-04-05 10:50:00,,0807.5,5.00,0.00,25.4,24.3,00.0,34.4,27.1,12.2,0000.0,0010.09,0003.06,0001.01
2022-04-05 10:51:00,,0807.6,4.98,0.00,25.4,24.3,00.0,34.4,27.1,12.3,0000.0,0010.90,0002.99,0001.01
2022-04-05 10:52:00,,0807.5,5.00,0.00,25.3,24.3,00.0,34.4,27.1,12.2,0000.0,0010.54,0002.99,0001.00
2022-04-05 10:53:00,,0807.6,4.99,0.00,25.3,24.3,00.0,34.4,27.1,12.2,0000.0,0011.37,0002.97,0001.00
2022-04-05 10:54:00,,0807.5,5.02,0.00,25.3,24.4,00.0,34.4,27.1,12.2,0000.0,0011.01,0002.82,0000.99
2022-04-05 10:55:00,,0807.5,5.00,0.00,25.3,24.4,00.0,34.4,27.1,12.4,0000.0,0011.04,0002.85,0000.99
2022-04-05 10:56:00,,0807.6,4.99,0.00,25.3,24.4,00.0,34.3,27.1,12.4,0000.0,0011.03,0002.88,0000.98
2022-04-05 10:57:00,,0807.5,5.01,0.00,25.3,24.4,00.0,34.4,27.1,12.5,0000.0,0010.89,0002.95,0001.00
2022-04-05 10:58:00,,0807.8,5.00,0.00,25.4,24.4,00.0,34.4,27.2,12.5,0000.0,0010.62,0002.95,0001.01
2022-04-05 10:59:00,,0807.7,5.00,0.00,25.3,24.5,00.0,34.4,27.1,12.4,0000.0,0010.85,0002.87,0001.00
